Weather in Zbarazh

Ukraine / Ternopil District     49˚39′59″N   25˚46′42″E
temp.,
°C
wind,
m/s
gust,
m/s
humid.,
%
clouds,
%
prec.,
mm/h
press.,
hPa
HPBL,
m
28 november, sat
sat2823:00+2˚w4796100 0.2 1021359
02:00+1˚w369197 0.3 1020176
05:00w489575 0.1 1019271
08:00+1˚w469487 0.1 1018419
11:00+1˚w3496100 0.3 1019227
14:00+1˚w4587100 0.4 1018509
17:00+1˚w468798 0.1 1018610
20:00wsw479499 0.2 1019368
29 november, sun
sun2923:00wsw479098 0.2 1019400
02:00−1˚nnw469399 0.6 1019392
05:00−2˚wnw359298 0.1 1019335
08:00−2˚wnw349199 0.1 1020354
11:00−1˚w2384100 0.3 1020432
14:00wsw2379100 0.4 1020515
17:00−1˚wsw2493100 0.1 1020268
20:00−2˚wsw249389 0.1 1022134
30 november, mon
mon3023:00−2˚wsw359348 0.0 1022210
02:00−3˚w259425 0.0 1023192
05:00−3˚w259515 0.0 1024180
08:00−3˚w359432 0.0 1026234
11:00−1˚wnw357737 0.0 1027627
14:00−1˚wnw347263 0.0 1027741
17:00−1˚wnw2376100 0.0 1028508
20:00−1˚wnw2275100 0.1 1029423
1 december, tue
tue123:00−1˚w1272100 0.0 1030352
02:00−2˚nw117698 0.0 102931
05:00−3˚se11830 0.0 102921
08:00−4˚se24830 0.0 1029128
11:00−2˚sse35730 0.0 1029469
14:00se34662 0.0 1028534
17:00−3˚ese36791 0.0 1027136
20:00−3˚ese37840 0.0 1028219
2 december, wed
wed223:00−4˚se36850 0.0 1028187
02:00−4˚ese35850 0.0 1028139
05:00−5˚ese34880 0.0 1027112
08:00−5˚ese35910 0.0 1028112
11:00−2˚ese34830 0.0 1028265
14:00−1˚ese34780 0.0 1026385
17:00−3˚ese34920 0.0 102697
20:00−2˚se369321 0.0 1027293